Time,TemperatureF,DewpointF,PressureIn,WindDirection,WindDirectionDegrees,WindSpeedMPH,WindSpeedGustMPH,Humidity,HourlyPrecipIn,Conditions,Clouds,dailyrainin,SolarRadiationWatts/m^2,SoftwareType,DateUTC
2013-10-23 00:01:00,49.3,47.1,30.12,WSW,252,0.0,0.0,92,0.00,CLR,,0.00,0.0,WeatherDisplay:10.37,2013-10-23 05:01:00,
2013-10-23 00:06:00,49.3,47.1,30.12,WSW,252,0.0,0.0,92,0.00,CLR,,0.00,0.0,WeatherDisplay:10.37,2013-10-23 05:06:00,
2013-10-23 00:11:00,49.0,46.8,30.12,WSW,252,0.0,0.0,92,0.00,CLR,,0.00,0.0,WeatherDisplay:10.37,2013-10-23 05:11:00,
2013-10-23 00:16:00,48.8,46.6,30.12,WSW,252,0.0,0.0,92,0.00,CLR,,0.00,0.0,WeatherDisplay:10.37,2013-10-23 05:16:00,
2013-10-23 00:21:00,48.7,46.5,30.12,WSW,252,0.0,0.0,92,0.00,CLR,,0.00,0.0,WeatherDisplay:10.37,2013-10-23 05:21:00,
2013-10-23 00:26:00,48.7,46.5,30.11,WSW,252,0.0,0.0,92,0.00,CLR,,0.00,0.0,WeatherDisplay:10.37,2013-10-23 05:26:00,
2013-10-23 00:31:00,48.6,46.4,30.11,WSW,252,0.0,0.0,92,0.00,CLR,,0.00,0.0,WeatherDisplay:10.37,2013-10-23 05:31:00,
2013-10-23 00:36:00,48.4,46.5,30.12,WSW,252,0.0,0.0,93,0.00,CLR,,0.00,0.0,WeatherDisplay:10.37,2013-10-23 05:36:00,
2013-10-23 00:41:00,48.3,46.4,30.11,WSW,252,0.0,0.0,93,0.00,CLR,,0.00,0.0,WeatherDisplay:10.37,2013-10-23 05:41:00,
2013-10-23 00:46:00,48.3,46.4,30.11,WSW,252,0.0,0.0,93,0.00,CLR,,0.00,0.0,WeatherDisplay:10.37,2013-10-23 05:46:00,
2013-10-23 00:51:00,48.3,46.4,30.11,WSW,252,0.0,0.0,93,0.00,CLR,,0.00,0.0,WeatherDisplay:10.37,2013-10-23 05:51:00,
2013-10-23 00:56:00,48.4,46.5,30.11,WSW,252,0.0,0.0,93,0.00,CLR,,0.00,0.0,WeatherDisplay:10.37,2013-10-23 05:56:00,
2013-10-23 01:01:00,48.4,46.5,30.11,WSW,252,0.0,0.0,93,0.00,CLR,,0.00,0.0,WeatherDisplay:10.37,2013-10-23 06:01:00,
2013-10-23 01:06:00,48.2,46.3,30.12,WSW,252,0.0,0.0,93,0.00,CLR,,0.00,0.0,WeatherDisplay:10.37,2013-10-23 06:06:00,
2013-10-23 01:11:00,48.0,46.1,30.12,WSW,252,0.0,0.0,93,0.00,CLR,,0.00,0.0,WeatherDisplay:10.37,2013-10-23 06:11:00,
2013-10-23 01:16:00,47.8,45.9,30.12,WSW,252,0.0,0.0,93,0.00,CLR,,0.00,0.0,WeatherDisplay:10.37,2013-10-23 06:16:00,
2013-10-23 01:21:00,47.7,45.8,30.12,WSW,252,0.0,0.0,93,0.00,CLR,,0.00,0.0,WeatherDisplay:10.37,2013-10-23 06:21:00,
2013-10-23 01:26:00,47.6,45.7,30.12,WSW,252,0.0,0.0,93,0.00,CLR,,0.00,0.0,WeatherDisplay:10.37,2013-10-23 06:26:00,
2013-10-23 01:31:00,47.2,45.3,30.12,WSW,252,0.0,0.0,93,0.00,CLR,,0.00,0.0,WeatherDisplay:10.37,2013-10-23 06:31:00,
2013-10-23 01:36:00,46.8,44.9,30.12,WSW,252,0.0,0.0,93,0.00,CLR,,0.00,0.0,WeatherDisplay:10.37,2013-10-23 06:36:00,
2013-10-23 01:41:00,46.7,44.8,30.12,WSW,252,0.0,0.0,93,0.00,CLR,,0.00,0.0,WeatherDisplay:10.37,2013-10-23 06:41:00,
2013-10-23 01:46:00,46.7,45.1,30.12,WSW,252,0.0,0.0,94,0.00,CLR,,0.00,0.0,WeatherDisplay:10.37,2013-10-23 06:46:00,
2013-10-23 01:51:00,46.8,44.9,30.12,WSW,252,0.0,0.0,93,0.00,CLR,,0.00,0.0,WeatherDisplay:10.37,2013-10-23 06:51:00,
2013-10-23 01:56:00,46.8,45.2,30.12,WSW,252,0.0,0.0,94,0.00,CLR,,0.00,0.0,WeatherDisplay:10.37,2013-10-23 06:56:00,
2013-10-23 02:01:00,46.8,45.2,30.12,WSW,252,0.0,0.0,94,0.00,CLR,,0.00,0.0,WeatherDisplay:10.37,2013-10-23 07:01:00,
2013-10-23 02:06:00,46.6,45.0,30.12,WSW,252,0.0,0.0,94,0.00,CLR,,0.00,0.0,WeatherDisplay:10.37,2013-10-23 07:06:00,
2013-10-23 02:11:00,46.5,44.9,30.12,WSW,252,0.0,0.0,94,0.00,CLR,,0.00,0.0,WeatherDisplay:10.37,2013-10-23 07:11:00,
2013-10-23 02:16:00,46.4,44.8,30.12,WSW,252,0.0,0.0,94,0.00,CLR,,0.00,0.0,WeatherDisplay:10.37,2013-10-23 07:16:00,
2013-10-23 02:21:00,46.3,44.7,30.12,WSW,252,0.0,0.0,94,0.00,CLR,,0.00,0.0,WeatherDisplay:10.37,2013-10-23 07:21:00,
2013-10-23 02:26:00,46.2,44.6,30.12,WSW,252,0.0,0.0,94,0.00,CLR,,0.00,0.0,WeatherDisplay:10.37,2013-10-23 07:26:00,
2013-10-23 02:31:00,46.2,44.6,30.12,WSW,252,0.0,0.0,94,0.00,CLR,,0.00,0.0,WeatherDisplay:10.37,2013-10-23 07:31:00,
2013-10-23 02:36:00,46.2,44.6,30.13,WSW,252,0.0,0.0,94,0.00,CLR,,0.00,0.0,WeatherDisplay:10.37,2013-10-23 07:36:00,
2013-10-23 02:41:00,46.3,44.7,30.13,WSW,252,0.0,0.0,94,0.00,CLR,,0.00,0.0,WeatherDisplay:10.37,2013-10-23 07:41:00,
2013-10-23 02:46:00,46.2,44.6,30.13,WSW,252,0.0,0.0,94,0.00,CLR,,0.00,0.0,WeatherDisplay:10.37,2013-10-23 07:46:00,
2013-10-23 02:51:00,46.1,44.5,30.13,WSW,252,0.0,0.0,94,0.00,CLR,,0.00,0.0,WeatherDisplay:10.37,2013-10-23 07:51:00,
2013-10-23 02:56:00,46.0,44.4,30.12,WSW,252,0.0,0.0,94,0.00,CLR,,0.00,0.0,WeatherDisplay:10.37,2013-10-23 07:56:00,
2013-10-23 03:01:00,46.1,44.5,30.12,WSW,252,0.0,0.0,94,0.00,CLR,,0.00,0.0,WeatherDisplay:10.37,2013-10-23 08:01:00,
2013-10-23 03:06:00,46.2,44.6,30.13,WSW,252,0.0,0.0,94,0.00,CLR,,0.00,0.0,WeatherDisplay:10.37,2013-10-23 08:06:00,
2013-10-23 03:11:00,46.4,44.8,30.13,WSW,252,0.0,0.0,94,0.00,CLR,,0.00,0.0,WeatherDisplay:10.37,2013-10-23 08:11:00,
2013-10-23 03:16:00,46.4,44.8,30.13,WSW,252,0.0,0.0,94,0.00,CLR,,0.00,0.0,WeatherDisplay:10.37,2013-10-23 08:16:00,
2013-10-23 03:21:00,46.2,44.6,30.13,WSW,252,0.0,0.0,94,0.00,CLR,,0.00,0.0,WeatherDisplay:10.37,2013-10-23 08:21:00,
2013-10-23 03:26:00,46.2,44.6,30.13,WSW,252,0.0,0.0,94,0.00,CLR,,0.00,0.0,WeatherDisplay:10.37,2013-10-23 08:26:00,
2013-10-23 03:31:00,46.1,44.5,30.13,WSW,252,0.0,0.0,94,0.00,CLR,,0.00,0.0,WeatherDisplay:10.37,2013-10-23 08:31:00,
2013-10-23 03:36:00,46.1,44.5,30.13,WSW,252,0.0,0.0,94,0.00,CLR,,0.00,0.0,WeatherDisplay:10.37,2013-10-23 08:36:00,
2013-10-23 03:41:00,46.2,44.6,30.13,WSW,252,0.0,0.0,94,0.00,CLR,,0.00,0.0,WeatherDisplay:10.37,2013-10-23 08:41:00,
2013-10-23 03:46:00,46.1,44.5,30.13,WSW,252,0.0,0.0,94,0.00,CLR,,0.00,0.0,WeatherDisplay:10.37,2013-10-23 08:46:00,
2013-10-23 03:51:00,46.1,44.5,30.13,WSW,252,0.0,0.0,94,0.00,CLR,,0.00,0.0,WeatherDisplay:10.37,2013-10-23 08:51:00,
2013-10-23 03:56:00,45.9,44.3,30.13,WSW,252,0.0,0.0,94,0.00,CLR,,0.00,0.0,WeatherDisplay:10.37,2013-10-23 08:56:00,
2013-10-23 04:01:00,45.6,44.0,30.14,WSW,252,1.6,3.5,94,0.00,CLR,,0.00,0.0,WeatherDisplay:10.37,2013-10-23 09:01:00,
2013-10-23 04:06:00,45.7,44.1,30.14,NNE,13,5.9,8.1,94,0.00,CLR,,0.00,0.0,WeatherDisplay:10.37,2013-10-23 09:06:00,
2013-10-23 04:11:00,46.3,44.7,30.13,NNE,13,2.7,3.5,94,0.00,CLR,,0.00,0.0,WeatherDisplay:10.37,2013-10-23 09:11:00,
2013-10-23 04:16:00,46.9,45.5,30.13,NNE,13,0.0,0.0,95,0.00,CLR,,0.00,0.0,WeatherDisplay:10.37,2013-10-23 09:16:00,
2013-10-23 04:21:00,47.2,45.8,30.13,NNE,13,0.0,0.0,95,0.00,CLR,,0.00,0.0,WeatherDisplay:10.37,2013-10-23 09:21:00,
2013-10-23 04:26:00,47.2,45.8,30.13,NNE,13,0.0,0.0,95,0.00,CLR,,0.00,0.0,WeatherDisplay:10.37,2013-10-23 09:26:00,
2013-10-23 04:31:00,47.0,45.4,30.14,NNE,13,0.0,0.0,94,0.00,CLR,,0.00,0.0,WeatherDisplay:10.37,2013-10-23 09:31:00,
2013-10-23 04:36:00,46.6,45.2,30.14,NNE,13,0.8,3.0,95,0.00,CLR,,0.00,0.0,WeatherDisplay:10.37,2013-10-23 09:36:00,
2013-10-23 04:41:00,46.5,44.9,30.14,NNE,13,4.4,5.0,94,0.00,CLR,,0.00,0.0,WeatherDisplay:10.37,2013-10-23 09:41:00,
2013-10-23 04:46:00,46.8,45.4,30.14,NNE,13,2.2,5.8,95,0.00,CLR,,0.00,0.0,WeatherDisplay:10.37,2013-10-23 09:46:00,
2013-10-23 04:51:00,47.2,45.8,30.14,NNE,13,3.3,4.6,95,0.00,CLR,,0.00,0.0,WeatherDisplay:10.37,2013-10-23 09:51:00,
2013-10-23 04:56:00,47.2,45.8,30.14,NNE,13,3.5,4.6,95,0.00,CLR,,0.00,0.0,WeatherDisplay:10.37,2013-10-23 09:56:00,
2013-10-23 05:01:00,47.3,45.9,30.14,NNE,13,3.6,4.6,95,0.00,CLR,,0.00,0.0,WeatherDisplay:10.37,2013-10-23 10:01:00,
2013-10-23 05:06:00,47.4,45.8,30.14,NNE,13,0.0,0.0,94,0.00,CLR,,0.00,0.0,WeatherDisplay:10.37,2013-10-23 10:06:00,
2013-10-23 05:11:00,47.4,45.8,30.14,NNE,13,2.7,3.5,94,0.00,CLR,,0.00,0.0,WeatherDisplay:10.37,2013-10-23 10:11:00,
2013-10-23 05:16:00,47.7,46.1,30.14,NNE,13,0.0,0.0,94,0.00,CLR,,0.00,0.0,WeatherDisplay:10.37,2013-10-23 10:16:00,
2013-10-23 05:21:00,47.6,46.0,30.14,NNE,13,3.2,4.0,94,0.00,CLR,,0.00,0.0,WeatherDisplay:10.37,2013-10-23 10:21:00,
2013-10-23 05:26:00,47.3,45.7,30.14,NNE,13,2.5,3.5,94,0.00,CLR,,0.00,0.0,WeatherDisplay:10.37,2013-10-23 10:26:00,
2013-10-23 05:31:00,47.0,45.1,30.14,NNE,13,0.0,0.0,93,0.00,CLR,,0.00,0.0,WeatherDisplay:10.37,2013-10-23 10:31:00,
2013-10-23 05:36:00,47.0,45.1,30.14,NNE,13,0.0,0.0,93,0.00,CLR,,0.00,0.0,WeatherDisplay:10.37,2013-10-23 10:36:00,
2013-10-23 05:41:00,46.9,45.0,30.14,NNE,13,0.0,0.0,93,0.00,CLR,,0.00,0.0,WeatherDisplay:10.37,2013-10-23 10:41:00,
2013-10-23 05:46:00,46.9,45.0,30.13,NNE,13,0.0,0.0,93,0.00,CLR,,0.00,0.0,WeatherDisplay:10.37,2013-10-23 10:46:00,
2013-10-23 05:51:00,46.6,44.7,30.13,NNE,13,0.0,0.0,93,0.00,CLR,,0.00,0.0,WeatherDisplay:10.37,2013-10-23 10:51:00,
2013-10-23 05:56:00,46.3,44.4,30.13,NNE,13,0.0,0.0,93,0.00,CLR,,0.00,0.0,WeatherDisplay:10.37,2013-10-23 10:56:00,
2013-10-23 06:01:00,45.9,44.0,30.13,NNE,13,0.0,0.0,93,0.00,CLR,,0.00,0.0,WeatherDisplay:10.37,2013-10-23 11:01:00,
2013-10-23 06:06:00,45.8,43.9,30.13,NNE,13,0.0,0.0,93,0.00,CLR,,0.00,0.0,WeatherDisplay:10.37,2013-10-23 11:06:00,
2013-10-23 06:11:00,46.0,44.1,30.13,NNE,13,0.0,0.0,93,0.00,CLR,,0.00,0.0,WeatherDisplay:10.37,2013-10-23 11:11:00,
2013-10-23 06:16:00,45.9,44.0,30.13,NNE,13,0.0,0.0,93,0.00,CLR,,0.00,0.0,WeatherDisplay:10.37,2013-10-23 11:16:00,
2013-10-23 06:21:00,45.9,44.0,30.13,NNE,13,0.0,0.0,93,0.00,CLR,,0.00,0.0,WeatherDisplay:10.37,2013-10-23 11:21:00,
2013-10-23 06:26:00,45.6,43.7,30.13,NNE,13,0.0,0.0,93,0.00,CLR,,0.00,0.0,WeatherDisplay:10.37,2013-10-23 11:26:00,
2013-10-23 06:31:00,45.5,43.6,30.13,NNE,13,0.0,0.0,93,0.00,CLR,,0.00,0.0,WeatherDisplay:10.37,2013-10-23 11:31:00,
2013-10-23 06:36:00,45.1,43.2,30.14,NNE,13,0.0,0.0,93,0.00,CLR,,0.00,0.0,WeatherDisplay:10.37,2013-10-23 11:36:00,
2013-10-23 06:41:00,44.8,42.9,30.14,NNE,13,0.0,0.0,93,0.00,CLR,,0.00,0.0,WeatherDisplay:10.37,2013-10-23 11:41:00,
2013-10-23 06:46:00,44.6,43.0,30.14,NNE,13,0.0,0.0,94,0.00,CLR,,0.00,0.0,WeatherDisplay:10.37,2013-10-23 11:46:00,
2013-10-23 06:51:00,44.7,43.1,30.14,NNE,13,0.0,0.0,94,0.00,CLR,,0.00,0.0,WeatherDisplay:10.37,2013-10-23 11:51:00,
2013-10-23 06:56:00,45.0,43.4,30.14,NNE,13,0.0,0.0,94,0.00,CLR,,0.00,0.0,WeatherDisplay:10.37,2013-10-23 11:56:00,
2013-10-23 07:01:00,45.1,43.5,30.15,NNE,13,0.0,0.0,94,0.00,CLR,,0.00,0.0,WeatherDisplay:10.37,2013-10-23 12:01:00,
2013-10-23 07:06:00,45.2,43.6,30.15,NNE,13,0.0,0.0,94,0.00,CLR,,0.00,0.0,WeatherDisplay:10.37,2013-10-23 12:06:00,
2013-10-23 07:11:00,45.1,43.5,30.15,NNE,13,0.0,0.0,94,0.00,CLR,,0.00,0.0,WeatherDisplay:10.37,2013-10-23 12:11:00,
2013-10-23 07:16:00,44.3,42.7,30.15,NNE,13,0.0,0.0,94,0.00,CLR,,0.00,0.0,WeatherDisplay:10.37,2013-10-23 12:16:00,
2013-10-23 07:21:00,43.9,42.3,30.14,NNE,13,0.0,0.0,94,0.00,CLR,,0.00,0.0,WeatherDisplay:10.37,2013-10-23 12:21:00,
2013-10-23 07:26:00,43.7,42.1,30.15,NNE,13,0.0,0.0,94,0.00,CLR,,0.00,0.0,WeatherDisplay:10.37,2013-10-23 12:26:00,
2013-10-23 07:31:00,43.7,42.1,30.15,NNE,13,0.0,0.0,94,0.00,CLR,,0.00,0.0,WeatherDisplay:10.37,2013-10-23 12:31:00,
2013-10-23 07:36:00,43.6,42.0,30.15,NNE,13,0.0,2.3,94,0.00,CLR,,0.00,0.0,WeatherDisplay:10.37,2013-10-23 12:36:00,
2013-10-23 07:41:00,43.6,42.0,30.15,NNE,13,0.0,0.0,94,0.00,CLR,,0.00,0.0,WeatherDisplay:10.37,2013-10-23 12:41:00,
2013-10-23 07:46:00,43.6,42.0,30.15,NNE,13,2.2,3.5,94,0.00,CLR,,0.00,5.5,WeatherDisplay:10.37,2013-10-23 12:46:00,
2013-10-23 07:51:00,43.7,42.1,30.15,NNE,13,0.0,0.0,94,0.00,CLR,,0.00,7.7,WeatherDisplay:10.37,2013-10-23 12:51:00,
2013-10-23 07:56:00,43.9,42.3,30.15,NNE,13,0.0,0.0,94,0.00,CLR,,0.00,9.9,WeatherDisplay:10.37,2013-10-23 12:56:00,
2013-10-23 08:01:00,44.5,43.2,30.16,NNE,13,1.0,2.3,95,0.00,CLR,,0.00,12.1,WeatherDisplay:10.37,2013-10-23 13:01:00,
2013-10-23 08:06:00,44.7,43.4,30.16,NNE,13,0.0,0.0,95,0.00,CLR,,0.00,13.2,WeatherDisplay:10.37,2013-10-23 13:06:00,
2013-10-23 08:11:00,45.3,44.0,30.16,NNE,13,0.0,0.0,95,0.00,CLR,,0.00,15.4,WeatherDisplay:10.37,2013-10-23 13:11:00,
2013-10-23 08:16:00,45.8,44.4,30.17,NNE,13,0.0,0.0,95,0.00,CLR,,0.00,19.8,WeatherDisplay:10.37,2013-10-23 13:16:00,
2013-10-23 08:21:00,46.1,44.7,30.17,NNE,13,2.2,4.0,95,0.00,CLR,,0.00,20.9,WeatherDisplay:10.37,2013-10-23 13:21:00,
2013-10-23 08:26:00,46.4,45.0,30.16,NNE,13,3.0,3.5,95,0.00,CLR,,0.00,20.9,WeatherDisplay:10.37,2013-10-23 13:26:00,
2013-10-23 08:31:00,46.8,45.4,30.17,NNE,13,0.9,3.5,95,0.00,CLR,,0.00,23.1,WeatherDisplay:10.37,2013-10-23 13:31:00,
2013-10-23 08:36:00,47.5,45.9,30.17,NNE,13,0.0,0.0,94,0.00,CLR,,0.00,25.3,WeatherDisplay:10.37,2013-10-23 13:36:00,
2013-10-23 08:41:00,48.2,46.6,30.17,NNE,13,0.0,0.0,94,0.00,CLR,,0.00,27.5,WeatherDisplay:10.37,2013-10-23 13:41:00,
2013-10-23 08:46:00,48.7,47.1,30.17,NNE,13,0.0,0.0,94,0.00,CLR,,0.00,28.6,WeatherDisplay:10.37,2013-10-23 13:46:00,
2013-10-23 08:51:00,49.2,47.3,30.17,NNE,13,0.0,0.0,93,0.00,CLR,,0.00,28.6,WeatherDisplay:10.37,2013-10-23 13:51:00,
2013-10-23 08:56:00,49.8,47.3,30.17,NNE,13,2.3,3.5,91,0.00,CLR,,0.00,30.8,WeatherDisplay:10.37,2013-10-23 13:56:00,
2013-10-23 09:01:00,50.3,47.5,30.17,NNE,13,1.4,4.0,90,0.00,CLR,,0.00,30.8,WeatherDisplay:10.37,2013-10-23 14:01:00,
2013-10-23 09:06:00,51.1,48.0,30.17,NNE,13,0.0,0.0,89,0.00,CLR,,0.00,36.3,WeatherDisplay:10.37,2013-10-23 14:06:00,
2013-10-23 09:11:00,51.9,48.2,30.17,NNE,13,0.4,4.0,87,0.00,CLR,,0.00,42.9,WeatherDisplay:10.37,2013-10-23 14:11:00,
2013-10-23 09:16:00,52.9,48.5,30.18,NNE,13,1.4,3.5,85,0.00,CLR,,0.00,68.2,WeatherDisplay:10.37,2013-10-23 14:16:00,
2013-10-23 09:21:00,53.8,48.8,30.17,NNE,13,1.2,4.6,83,0.00,CLR,,0.00,262.9,WeatherDisplay:10.37,2013-10-23 14:21:00,
2013-10-23 09:26:00,55.0,48.9,30.18,NNE,13,2.2,4.0,80,0.00,CLR,,0.00,293.7,WeatherDisplay:10.37,2013-10-23 14:26:00,
2013-10-23 09:31:00,55.9,49.1,30.18,NNE,13,2.4,4.6,78,0.00,CLR,,0.00,311.3,WeatherDisplay:10.37,2013-10-23 14:31:00,
2013-10-23 09:36:00,56.7,48.9,30.18,NNE,14,0.0,0.0,75,0.00,CLR,,0.00,324.5,WeatherDisplay:10.37,2013-10-23 14:36:00,
2013-10-23 09:41:00,57.5,49.3,30.18,NNE,14,2.4,5.8,74,0.00,CLR,,0.00,342.1,WeatherDisplay:10.37,2013-10-23 14:41:00,
2013-10-23 09:46:00,58.0,49.0,30.18,NNE,14,5.0,5.0,72,0.00,CLR,,0.00,359.7,WeatherDisplay:10.37,2013-10-23 14:46:00,
2013-10-23 09:51:00,58.4,49.8,30.18,NNE,14,4.3,5.0,73,0.00,CLR,,0.00,375.1,WeatherDisplay:10.37,2013-10-23 14:51:00,
2013-10-23 09:56:00,58.9,49.9,30.18,NNE,14,0.0,0.0,72,0.00,CLR,,0.00,392.7,WeatherDisplay:10.37,2013-10-23 14:56:00,
2013-10-23 10:01:00,59.2,49.4,30.18,NE,47,3.3,6.9,70,0.00,CLR,,0.00,419.1,WeatherDisplay:10.37,2013-10-23 15:01:00,
2013-10-23 10:06:00,59.7,49.1,30.18,NE,54,2.5,5.8,68,0.00,CLR,,0.00,444.4,WeatherDisplay:10.37,2013-10-23 15:06:00,
2013-10-23 10:11:00,59.9,48.9,30.18,East,82,2.6,4.6,67,0.00,CLR,,0.00,456.5,WeatherDisplay:10.37,2013-10-23 15:11:00,
2013-10-23 10:16:00,60.4,49.4,30.18,East,81,3.2,4.0,67,0.00,CLR,,0.00,474.1,WeatherDisplay:10.37,2013-10-23 15:16:00,
2013-10-23 10:21:00,61.3,50.6,30.17,East,82,1.1,3.5,68,0.00,CLR,,0.00,490.6,WeatherDisplay:10.37,2013-10-23 15:21:00,
2013-10-23 10:26:00,61.8,49.1,30.17,East,84,2.6,5.8,63,0.00,CLR,,0.00,507.1,WeatherDisplay:10.37,2013-10-23 15:26:00,
2013-10-23 10:31:00,62.4,49.6,30.17,East,85,0.6,1.2,63,0.00,CLR,,0.00,522.5,WeatherDisplay:10.37,2013-10-23 15:31:00,
2013-10-23 10:36:00,62.5,48.4,30.17,East,85,2.8,4.6,60,0.00,CLR,,0.00,535.7,WeatherDisplay:10.37,2013-10-23 15:36:00,
2013-10-23 10:41:00,62.9,49.2,30.17,East,91,2.6,8.0,61,0.00,CLR,,0.00,548.9,WeatherDisplay:10.37,2013-10-23 15:41:00,
2013-10-23 10:46:00,63.6,48.5,30.17,ESE,108,3.0,6.9,58,0.00,CLR,,0.00,563.2,WeatherDisplay:10.37,2013-10-23 15:46:00,
2013-10-23 10:51:00,63.9,50.6,30.17,ESE,106,1.9,3.5,62,0.00,CLR,,0.00,578.6,WeatherDisplay:10.37,2013-10-23 15:51:00,
2013-10-23 10:56:00,65.2,51.0,30.17,ESE,108,0.0,0.0,60,0.00,CLR,,0.00,591.8,WeatherDisplay:10.37,2013-10-23 15:56:00,
2013-10-23 11:01:00,65.5,49.9,30.17,ESE,108,0.0,0.0,57,0.00,CLR,,0.00,602.8,WeatherDisplay:10.37,2013-10-23 16:01:00,
2013-10-23 11:06:00,65.7,49.1,30.17,ESE,107,2.4,4.6,55,0.00,CLR,,0.00,617.1,WeatherDisplay:10.37,2013-10-23 16:06:00,
2013-10-23 11:11:00,65.9,49.8,30.17,ESE,108,3.2,6.9,56,0.00,CLR,,0.00,628.1,WeatherDisplay:10.37,2013-10-23 16:11:00,
2013-10-23 11:16:00,66.4,50.7,30.17,ESE,108,2.5,4.6,57,0.00,CLR,,0.00,640.2,WeatherDisplay:10.37,2013-10-23 16:16:00,
2013-10-23 11:21:00,66.6,50.4,30.17,ESE,108,2.4,5.8,56,0.00,CLR,,0.00,651.2,WeatherDisplay:10.37,2013-10-23 16:21:00,
2013-10-23 11:26:00,67.1,51.4,30.17,ESE,108,2.9,5.0,57,0.00,CLR,,0.00,661.1,WeatherDisplay:10.37,2013-10-23 16:26:00,
2013-10-23 11:31:00,67.1,49.4,30.17,ESE,118,4.2,6.9,53,0.00,CLR,,0.00,673.2,WeatherDisplay:10.37,2013-10-23 16:31:00,
2013-10-23 11:36:00,67.9,49.1,30.17,ESE,118,1.2,4.0,51,0.00,CLR,,0.00,683.1,WeatherDisplay:10.37,2013-10-23 16:36:00,
2013-10-23 11:41:00,67.9,50.1,30.17,ESE,118,1.0,3.5,53,0.00,CLR,,0.00,690.8,WeatherDisplay:10.37,2013-10-23 16:41:00,
2013-10-23 11:46:00,68.1,49.8,30.17,ESE,118,1.0,2.3,52,0.00,CLR,,0.00,698.5,WeatherDisplay:10.37,2013-10-23 16:46:00,
2013-10-23 11:51:00,68.9,51.1,30.17,ESE,118,1.4,4.6,53,0.00,CLR,,0.00,709.5,WeatherDisplay:10.37,2013-10-23 16:51:00,
2013-10-23 11:56:00,68.9,50.0,30.17,ESE,118,3.2,6.0,51,0.00,CLR,,0.00,717.2,WeatherDisplay:10.37,2013-10-23 16:56:00,
2013-10-23 12:01:00,69.4,49.4,30.17,ESE,118,1.2,5.0,49,0.00,CLR,,0.00,722.7,WeatherDisplay:10.37,2013-10-23 17:01:00,
2013-10-23 12:06:00,69.8,49.8,30.17,ESE,118,0.6,2.3,49,0.00,CLR,,0.00,730.4,WeatherDisplay:10.37,2013-10-23 17:06:00,
2013-10-23 12:11:00,70.1,51.1,30.16,ESE,118,1.7,4.0,51,0.00,CLR,,0.00,737.0,WeatherDisplay:10.37,2013-10-23 17:11:00,
2013-10-23 12:16:00,70.3,50.8,30.16,ESE,118,1.9,5.8,50,0.00,CLR,,0.00,744.7,WeatherDisplay:10.37,2013-10-23 17:16:00,
2013-10-23 12:21:00,70.8,51.2,30.16,ESE,118,2.6,5.8,50,0.00,CLR,,0.00,750.2,WeatherDisplay:10.37,2013-10-23 17:21:00,
2013-10-23 12:26:00,71.0,50.3,30.16,ESE,118,0.1,2.3,48,0.00,CLR,,0.00,755.7,WeatherDisplay:10.37,2013-10-23 17:26:00,
2013-10-23 12:31:00,71.2,50.5,30.15,ESE,118,1.6,4.6,48,0.00,CLR,,0.00,762.3,WeatherDisplay:10.37,2013-10-23 17:31:00,
2013-10-23 12:36:00,71.0,50.9,30.15,ESE,120,1.2,6.0,49,0.00,CLR,,0.00,763.4,WeatherDisplay:10.37,2013-10-23 17:36:00,
2013-10-23 12:41:00,71.3,50.6,30.14,ESE,112,3.0,6.9,48,0.00,CLR,,0.00,770.0,WeatherDisplay:10.37,2013-10-23 17:41:00,
2013-10-23 12:46:00,72.2,50.8,30.14,SE,130,2.1,8.1,47,0.00,CLR,,0.00,773.3,WeatherDisplay:10.37,2013-10-23 17:46:00,
2013-10-23 12:51:00,72.7,51.9,30.14,SE,142,2.9,5.8,48,0.00,CLR,,0.00,777.7,WeatherDisplay:10.37,2013-10-23 17:51:00,
2013-10-23 12:56:00,73.0,51.0,30.13,SE,141,3.7,6.9,46,0.00,CLR,,0.00,778.8,WeatherDisplay:10.37,2013-10-23 17:56:00,
2013-10-23 13:01:00,72.8,51.4,30.13,SE,136,5.2,8.1,47,0.00,CLR,,0.00,783.2,WeatherDisplay:10.37,2013-10-23 18:01:00,
2013-10-23 13:06:00,73.2,51.8,30.13,SE,130,3.1,5.8,47,0.00,CLR,,0.00,781.0,WeatherDisplay:10.37,2013-10-23 18:06:00,
2013-10-23 13:11:00,73.4,51.9,30.13,SE,138,1.3,6.9,47,0.00,CLR,,0.00,785.4,WeatherDisplay:10.37,2013-10-23 18:11:00,
2013-10-23 13:16:00,73.5,51.4,30.12,SSE,147,4.2,12.7,46,0.00,CLR,,0.00,785.4,WeatherDisplay:10.37,2013-10-23 18:16:00,
2013-10-23 13:21:00,73.4,52.5,30.12,SE,145,2.7,4.6,48,0.00,CLR,,0.00,783.2,WeatherDisplay:10.37,2013-10-23 18:21:00,
2013-10-23 13:26:00,74.0,53.1,30.12,SE,145,0.2,5.8,48,0.00,CLR,,0.00,785.4,WeatherDisplay:10.37,2013-10-23 18:26:00,
2013-10-23 13:31:00,73.9,51.8,30.12,SSW,196,6.2,10.4,46,0.00,CLR,,0.00,781.0,WeatherDisplay:10.37,2013-10-23 18:31:00,
2013-10-23 13:36:00,73.9,52.4,30.12,South,179,2.8,3.5,47,0.00,CLR,,0.00,778.8,WeatherDisplay:10.37,2013-10-23 18:36:00,
2013-10-23 13:41:00,73.9,51.8,30.11,South,191,6.4,10.0,46,0.00,CLR,,0.00,777.7,WeatherDisplay:10.37,2013-10-23 18:41:00,
2013-10-23 13:46:00,74.3,52.2,30.11,SSE,162,2.6,5.8,46,0.00,CLR,,0.00,775.5,WeatherDisplay:10.37,2013-10-23 18:46:00,
2013-10-23 13:51:00,74.2,51.5,30.10,SSE,151,0.5,3.5,45,0.00,CLR,,0.00,775.5,WeatherDisplay:10.37,2013-10-23 18:51:00,
2013-10-23 13:56:00,74.2,51.5,30.10,South,171,4.1,7.0,45,0.00,CLR,,0.00,770.0,WeatherDisplay:10.37,2013-10-23 18:56:00,
2013-10-23 14:01:00,74.6,51.9,30.10,South,191,1.8,3.5,45,0.00,CLR,,0.00,765.6,WeatherDisplay:10.37,2013-10-23 19:01:00,
2013-10-23 14:06:00,74.8,53.8,30.10,SSE,166,3.9,6.9,48,0.00,CLR,,0.00,762.3,WeatherDisplay:10.37,2013-10-23 19:06:00,
2013-10-23 14:11:00,74.8,52.0,30.09,SSE,149,4.0,7.0,45,0.00,CLR,,0.00,755.7,WeatherDisplay:10.37,2013-10-23 19:11:00,
2013-10-23 14:16:00,74.8,52.6,30.09,SSE,150,3.5,9.2,46,0.00,CLR,,0.00,750.2,WeatherDisplay:10.37,2013-10-23 19:16:00,
2013-10-23 14:21:00,75.2,52.4,30.09,SSE,152,4.7,8.1,45,0.00,CLR,,0.00,744.7,WeatherDisplay:10.37,2013-10-23 19:21:00,
2013-10-23 14:26:00,75.3,52.5,30.08,SSE,147,4.1,5.8,45,0.00,CLR,,0.00,738.1,WeatherDisplay:10.37,2013-10-23 19:26:00,
2013-10-23 14:31:00,74.8,52.0,30.08,SE,137,0.1,2.3,45,0.00,CLR,,0.00,730.4,WeatherDisplay:10.37,2013-10-23 19:31:00,
2013-10-23 14:36:00,75.3,52.5,30.08,SE,139,4.1,6.9,45,0.00,CLR,,0.00,721.6,WeatherDisplay:10.37,2013-10-23 19:36:00,
2013-10-23 14:41:00,76.2,53.9,30.08,SE,138,4.1,6.0,46,0.00,CLR,,0.00,713.9,WeatherDisplay:10.37,2013-10-23 19:41:00,
2013-10-23 14:46:00,75.9,52.4,30.08,SE,141,1.7,4.6,44,0.00,CLR,,0.00,706.2,WeatherDisplay:10.37,2013-10-23 19:46:00,
2013-10-23 14:51:00,76.0,53.1,30.08,SSE,147,5.3,6.9,45,0.00,CLR,,0.00,698.5,WeatherDisplay:10.37,2013-10-23 19:51:00,
2013-10-23 14:56:00,76.1,53.2,30.07,SE,145,2.4,9.2,45,0.00,CLR,,0.00,688.6,WeatherDisplay:10.37,2013-10-23 19:56:00,
2013-10-23 15:01:00,76.4,53.5,30.07,SE,146,1.2,2.0,45,0.00,CLR,,0.00,676.5,WeatherDisplay:10.37,2013-10-23 20:01:00,
2013-10-23 15:06:00,76.1,54.4,30.07,SE,146,1.9,4.6,47,0.00,CLR,,0.00,666.6,WeatherDisplay:10.37,2013-10-23 20:06:00,
2013-10-23 15:11:00,76.6,54.3,30.07,SE,145,3.5,8.1,46,0.00,CLR,,0.00,655.6,WeatherDisplay:10.37,2013-10-23 20:11:00,
2013-10-23 15:16:00,76.8,54.5,30.07,SE,144,2.8,6.9,46,0.00,CLR,,0.00,645.7,WeatherDisplay:10.37,2013-10-23 20:16:00,
2013-10-23 15:21:00,77.1,54.1,30.07,SE,145,1.9,4.6,45,0.00,CLR,,0.00,634.7,WeatherDisplay:10.37,2013-10-23 20:21:00,
2013-10-23 15:26:00,77.1,54.1,30.07,SE,146,3.7,9.0,45,0.00,CLR,,0.00,620.4,WeatherDisplay:10.37,2013-10-23 20:26:00,
2013-10-23 15:31:00,77.7,53.4,30.07,SE,146,2.8,6.9,43,0.00,CLR,,0.00,609.4,WeatherDisplay:10.37,2013-10-23 20:31:00,
2013-10-23 15:36:00,77.5,53.9,30.07,SSE,147,2.5,4.0,44,0.00,CLR,,0.00,595.1,WeatherDisplay:10.37,2013-10-23 20:36:00,
2013-10-23 15:41:00,77.5,53.9,30.07,SSE,147,2.4,5.8,44,0.00,CLR,,0.00,185.9,WeatherDisplay:10.37,2013-10-23 20:41:00,
2013-10-23 15:46:00,77.1,52.2,30.06,SSE,147,0.6,3.5,42,0.00,CLR,,0.00,372.9,WeatherDisplay:10.37,2013-10-23 20:46:00,
2013-10-23 15:51:00,77.0,53.4,30.06,SSE,157,3.6,10.4,44,0.00,CLR,,0.00,66.0,WeatherDisplay:10.37,2013-10-23 20:51:00,
2013-10-23 15:56:00,77.1,53.5,30.06,SSE,157,3.4,3.5,44,0.00,CLR,,0.00,58.3,WeatherDisplay:10.37,2013-10-23 20:56:00,
2013-10-23 16:01:00,77.2,53.0,30.06,SSE,156,1.8,4.6,43,0.00,CLR,,0.00,58.3,WeatherDisplay:10.37,2013-10-23 21:01:00,
2013-10-23 16:06:00,77.6,54.0,30.06,SSE,156,2.5,6.9,44,0.00,CLR,,0.00,58.3,WeatherDisplay:10.37,2013-10-23 21:06:00,
2013-10-23 16:11:00,77.5,53.9,30.06,SSE,155,3.0,5.8,44,0.00,CLR,,0.00,56.1,WeatherDisplay:10.37,2013-10-23 21:11:00,
2013-10-23 16:16:00,77.7,52.1,30.06,SSW,206,7.7,11.5,41,0.00,CLR,,0.00,53.9,WeatherDisplay:10.37,2013-10-23 21:16:00,
2013-10-23 16:21:00,77.9,51.6,30.06,SSW,211,5.7,8.1,40,0.00,CLR,,0.00,53.9,WeatherDisplay:10.37,2013-10-23 21:21:00,
2013-10-23 16:26:00,77.9,51.6,30.06,SSW,195,7.3,14.0,40,0.00,CLR,,0.00,68.2,WeatherDisplay:10.37,2013-10-23 21:26:00,
2013-10-23 16:31:00,78.0,52.4,30.06,South,181,1.4,6.9,41,0.00,CLR,,0.00,56.1,WeatherDisplay:10.37,2013-10-23 21:31:00,
2013-10-23 16:36:00,77.9,50.9,30.06,South,181,0.3,2.3,39,0.00,CLR,,0.00,51.7,WeatherDisplay:10.37,2013-10-23 21:36:00,
2013-10-23 16:41:00,78.0,51.7,30.06,South,183,3.7,8.0,40,0.00,CLR,,0.00,51.7,WeatherDisplay:10.37,2013-10-23 21:41:00,
2013-10-23 16:46:00,78.1,50.4,30.06,South,185,4.4,6.9,38,0.00,CLR,,0.00,50.6,WeatherDisplay:10.37,2013-10-23 21:46:00,
2013-10-23 16:51:00,78.0,51.0,30.06,SSW,210,2.0,5.0,39,0.00,CLR,,0.00,56.1,WeatherDisplay:10.37,2013-10-23 21:51:00,
2013-10-23 16:56:00,78.1,51.8,30.05,SSW,210,4.1,6.0,40,0.00,CLR,,0.00,69.3,WeatherDisplay:10.37,2013-10-23 21:56:00,
2013-10-23 17:01:00,78.2,49.8,30.05,SSW,193,6.5,10.4,37,0.00,CLR,,0.00,58.3,WeatherDisplay:10.37,2013-10-23 22:01:00,
2013-10-23 17:06:00,78.0,48.1,30.05,SW,219,10.3,12.7,35,0.00,CLR,,0.00,46.2,WeatherDisplay:10.37,2013-10-23 22:06:00,
2013-10-23 17:11:00,77.7,48.6,30.05,SW,228,7.0,9.0,36,0.00,CLR,,0.00,46.2,WeatherDisplay:10.37,2013-10-23 22:11:00,
2013-10-23 17:16:00,77.5,48.4,30.05,SW,236,5.2,8.0,36,0.00,CLR,,0.00,48.4,WeatherDisplay:10.37,2013-10-23 22:16:00,
2013-10-23 17:21:00,77.3,48.3,30.05,SW,227,5.4,8.0,36,0.00,CLR,,0.00,46.2,WeatherDisplay:10.37,2013-10-23 22:21:00,
2013-10-23 17:26:00,77.1,48.1,30.05,SW,222,6.1,10.4,36,0.00,CLR,,0.00,44.0,WeatherDisplay:10.37,2013-10-23 22:26:00,
2013-10-23 17:31:00,76.8,50.0,30.05,SSW,210,6.1,9.2,39,0.00,CLR,,0.00,38.5,WeatherDisplay:10.37,2013-10-23 22:31:00,
2013-10-23 17:36:00,76.4,49.6,30.05,SSW,211,5.0,9.0,39,0.00,CLR,,0.00,36.3,WeatherDisplay:10.37,2013-10-23 22:36:00,
2013-10-23 17:41:00,76.1,49.3,30.05,SSW,210,3.5,4.6,39,0.00,CLR,,0.00,35.2,WeatherDisplay:10.37,2013-10-23 22:41:00,
2013-10-23 17:46:00,75.7,49.7,30.05,SSW,210,4.0,6.0,40,0.00,CLR,,0.00,33.0,WeatherDisplay:10.37,2013-10-23 22:46:00,
2013-10-23 17:51:00,75.4,50.1,30.05,SSW,210,4.3,5.8,41,0.00,CLR,,0.00,30.8,WeatherDisplay:10.37,2013-10-23 22:51:00,
2013-10-23 17:56:00,75.1,50.4,30.04,SSW,210,1.9,3.5,42,0.00,CLR,,0.00,28.6,WeatherDisplay:10.37,2013-10-23 22:56:00,
2013-10-23 18:01:00,74.6,51.2,30.04,SSW,210,1.4,3.5,44,0.00,CLR,,0.00,27.5,WeatherDisplay:10.37,2013-10-23 23:01:00,
2013-10-23 18:06:00,73.9,51.2,30.04,SSW,210,0.8,3.5,45,0.00,CLR,,0.00,23.1,WeatherDisplay:10.37,2013-10-23 23:06:00,
2013-10-23 18:11:00,72.3,52.6,30.04,SSW,210,0.3,1.2,50,0.00,CLR,,0.00,20.9,WeatherDisplay:10.37,2013-10-23 23:11:00,
2013-10-23 18:16:00,71.0,52.5,30.04,SSW,210,0.0,1.2,52,0.00,CLR,,0.00,19.8,WeatherDisplay:10.37,2013-10-23 23:16:00,
2013-10-23 18:21:00,70.1,52.7,30.04,SSW,210,0.0,0.0,54,0.00,CLR,,0.00,17.6,WeatherDisplay:10.37,2013-10-23 23:21:00,
2013-10-23 18:26:00,69.5,53.1,30.04,SSW,210,1.9,2.3,56,0.00,CLR,,0.00,13.2,WeatherDisplay:10.37,2013-10-23 23:26:00,
2013-10-23 18:31:00,69.0,53.1,30.04,SSW,210,0.0,0.0,57,0.00,CLR,,0.00,12.1,WeatherDisplay:10.37,2013-10-23 23:31:00,
2013-10-23 18:36:00,68.0,53.1,30.04,SSW,210,0.0,0.0,59,0.00,CLR,,0.00,7.7,WeatherDisplay:10.37,2013-10-23 23:36:00,
2013-10-23 18:41:00,67.2,52.8,30.04,SSW,210,0.0,0.0,60,0.00,CLR,,0.00,5.5,WeatherDisplay:10.37,2013-10-23 23:41:00,
2013-10-23 18:46:00,66.8,52.0,30.04,SSW,210,0.0,0.0,59,0.00,CLR,,0.00,0.0,WeatherDisplay:10.37,2013-10-23 23:46:00,
2013-10-23 18:51:00,65.8,52.9,30.04,SSW,210,0.0,0.0,63,0.00,CLR,,0.00,0.0,WeatherDisplay:10.37,2013-10-23 23:51:00,
2013-10-23 18:56:00,65.1,52.2,30.04,SSW,210,2.4,3.5,63,0.00,CLR,,0.00,0.0,WeatherDisplay:10.37,2013-10-23 23:56:00,
2013-10-23 19:01:00,65.1,51.8,30.04,SSW,210,1.7,3.5,62,0.00,CLR,,0.00,0.0,WeatherDisplay:10.37,2013-10-24 00:01:00,
2013-10-23 19:06:00,64.6,51.7,30.04,SSW,210,2.5,3.5,63,0.00,CLR,,0.00,0.0,WeatherDisplay:10.37,2013-10-24 00:06:00,
2013-10-23 19:11:00,64.0,52.4,30.04,SSW,210,3.2,4.0,66,0.00,CLR,,0.00,0.0,WeatherDisplay:10.37,2013-10-24 00:11:00,
2013-10-23 19:16:00,63.3,52.6,30.04,SSW,210,3.1,3.5,68,0.00,CLR,,0.00,0.0,WeatherDisplay:10.37,2013-10-24 00:16:00,
2013-10-23 19:21:00,62.5,52.6,30.04,SSW,210,2.0,3.0,70,0.00,CLR,,0.00,0.0,WeatherDisplay:10.37,2013-10-24 00:21:00,
2013-10-23 19:26:00,61.6,52.9,30.05,SSW,210,0.5,2.3,73,0.00,CLR,,0.00,0.0,WeatherDisplay:10.37,2013-10-24 00:26:00,
2013-10-23 19:31:00,61.0,52.7,30.05,SSW,210,2.2,3.5,74,0.00,CLR,,0.00,0.0,WeatherDisplay:10.37,2013-10-24 00:31:00,
2013-10-23 19:36:00,60.8,52.5,30.05,SSW,210,0.0,1.2,74,0.00,CLR,,0.00,0.0,WeatherDisplay:10.37,2013-10-24 00:36:00,
2013-10-23 19:41:00,61.0,52.7,30.05,SSW,210,2.5,3.5,74,0.00,CLR,,0.00,0.0,WeatherDisplay:10.37,2013-10-24 00:41:00,
2013-10-23 19:46:00,60.5,52.5,30.05,SSW,210,0.0,1.2,75,0.00,CLR,,0.00,0.0,WeatherDisplay:10.37,2013-10-24 00:46:00,
2013-10-23 19:51:00,59.7,52.8,30.05,SSW,210,0.0,0.0,78,0.00,CLR,,0.00,0.0,WeatherDisplay:10.37,2013-10-24 00:51:00,
2013-10-23 19:56:00,59.0,52.5,30.05,SSW,210,0.0,0.0,79,0.00,CLR,,0.00,0.0,WeatherDisplay:10.37,2013-10-24 00:56:00,
2013-10-23 20:01:00,58.7,52.5,30.05,SSW,210,0.0,0.0,80,0.00,CLR,,0.00,0.0,WeatherDisplay:10.37,2013-10-24 01:01:00,
2013-10-23 20:06:00,58.4,52.6,30.05,SSW,210,0.0,0.0,81,0.00,CLR,,0.00,0.0,WeatherDisplay:10.37,2013-10-24 01:06:00,
2013-10-23 20:11:00,58.0,52.5,30.05,SSW,210,0.0,0.0,82,0.00,CLR,,0.00,0.0,WeatherDisplay:10.37,2013-10-24 01:11:00,
2013-10-23 20:16:00,57.8,52.7,30.06,SSW,210,0.0,0.0,83,0.00,CLR,,0.00,0.0,WeatherDisplay:10.37,2013-10-24 01:16:00,
2013-10-23 20:21:00,57.5,52.4,30.06,SSW,210,0.0,0.0,83,0.00,CLR,,0.00,0.0,WeatherDisplay:10.37,2013-10-24 01:21:00,
2013-10-23 20:26:00,57.4,51.9,30.06,SSW,210,0.0,0.0,82,0.00,CLR,,0.00,0.0,WeatherDisplay:10.37,2013-10-24 01:26:00,
2013-10-23 20:31:00,57.7,51.9,30.06,SSW,210,0.0,1.2,81,0.00,CLR,,0.00,0.0,WeatherDisplay:10.37,2013-10-24 01:31:00,
2013-10-23 20:36:00,57.7,51.9,30.06,SSW,210,0.0,1.2,81,0.00,CLR,,0.00,0.0,WeatherDisplay:10.37,2013-10-24 01:36:00,
2013-10-23 20:41:00,57.7,52.2,30.06,SSW,210,0.0,0.0,82,0.00,CLR,,0.00,0.0,WeatherDisplay:10.37,2013-10-24 01:41:00,
2013-10-23 20:46:00,58.0,52.2,30.06,SSW,210,0.0,1.2,81,0.00,CLR,,0.00,0.0,WeatherDisplay:10.37,2013-10-24 01:46:00,
2013-10-23 20:51:00,58.2,52.1,30.06,SSW,210,0.6,1.0,80,0.00,CLR,,0.00,0.0,WeatherDisplay:10.37,2013-10-24 01:51:00,
2013-10-23 20:56:00,59.1,52.2,30.06,SSW,210,0.0,1.2,78,0.00,CLR,,0.00,0.0,WeatherDisplay:10.37,2013-10-24 01:56:00,
2013-10-23 21:01:00,59.7,51.8,30.06,SSW,210,0.0,0.0,75,0.00,CLR,,0.00,0.0,WeatherDisplay:10.37,2013-10-24 02:01:00,
2013-10-23 21:06:00,59.7,51.8,30.06,SSW,210,0.0,0.0,75,0.00,CLR,,0.00,0.0,WeatherDisplay:10.37,2013-10-24 02:06:00,
2013-10-23 21:11:00,60.0,51.7,30.06,SSW,210,1.1,2.3,74,0.00,CLR,,0.00,0.0,WeatherDisplay:10.37,2013-10-24 02:11:00,
2013-10-23 21:16:00,59.8,51.5,30.05,SSW,210,0.9,2.3,74,0.00,CLR,,0.00,0.0,WeatherDisplay:10.37,2013-10-24 02:16:00,
2013-10-23 21:21:00,59.8,51.9,30.06,SSW,210,0.0,0.0,75,0.00,CLR,,0.00,0.0,WeatherDisplay:10.37,2013-10-24 02:21:00,
2013-10-23 21:26:00,59.5,51.9,30.06,SSW,210,0.0,0.0,76,0.00,CLR,,0.00,0.0,WeatherDisplay:10.37,2013-10-24 02:26:00,
2013-10-23 21:31:00,59.3,51.7,30.06,SSW,210,0.0,0.0,76,0.00,CLR,,0.00,0.0,WeatherDisplay:10.37,2013-10-24 02:31:00,
2013-10-23 21:36:00,59.8,51.9,30.05,SSW,210,0.0,0.0,75,0.00,CLR,,0.00,0.0,WeatherDisplay:10.37,2013-10-24 02:36:00,
2013-10-23 21:41:00,60.0,51.7,30.05,SSW,210,0.0,0.0,74,0.00,CLR,,0.00,0.0,WeatherDisplay:10.37,2013-10-24 02:41:00,
2013-10-23 21:46:00,59.7,51.8,30.05,SSW,210,0.0,0.0,75,0.00,CLR,,0.00,0.0,WeatherDisplay:10.37,2013-10-24 02:46:00,
2013-10-23 21:51:00,57.7,51.2,30.06,SSW,210,1.0,2.3,79,0.00,CLR,,0.00,0.0,WeatherDisplay:10.37,2013-10-24 02:51:00,
2013-10-23 21:56:00,58.0,51.5,30.06,SSW,210,0.0,3.5,79,0.00,CLR,,0.00,0.0,WeatherDisplay:10.37,2013-10-24 02:56:00,
2013-10-23 22:01:00,57.6,51.5,30.05,SSW,210,0.0,0.0,80,0.00,CLR,,0.00,0.0,WeatherDisplay:10.37,2013-10-24 03:01:00,
2013-10-23 22:06:00,58.6,51.4,30.05,SSW,210,0.0,0.0,77,0.00,CLR,,0.00,0.0,WeatherDisplay:10.37,2013-10-24 03:06:00,
2013-10-23 22:11:00,59.4,51.5,30.05,SSW,210,0.0,1.2,75,0.00,CLR,,0.00,0.0,WeatherDisplay:10.37,2013-10-24 03:11:00,
2013-10-23 22:16:00,59.5,50.8,30.05,SSW,210,0.0,0.0,73,0.00,CLR,,0.00,0.0,WeatherDisplay:10.37,2013-10-24 03:16:00,
2013-10-23 22:21:00,59.5,50.8,30.05,SSW,210,0.0,0.0,73,0.00,CLR,,0.00,0.0,WeatherDisplay:10.37,2013-10-24 03:21:00,
2013-10-23 22:26:00,59.5,50.8,30.05,SSW,210,0.0,0.0,73,0.00,CLR,,0.00,0.0,WeatherDisplay:10.37,2013-10-24 03:26:00,
2013-10-23 22:31:00,59.6,50.6,30.05,SSW,210,1.8,3.5,72,0.00,CLR,,0.00,0.0,WeatherDisplay:10.37,2013-10-24 03:31:00,
2013-10-23 22:36:00,59.3,50.3,30.06,SSW,210,0.1,1.2,72,0.00,CLR,,0.00,0.0,WeatherDisplay:10.37,2013-10-24 03:36:00,
2013-10-23 22:41:00,57.5,50.7,30.06,SSW,210,0.0,0.0,78,0.00,CLR,,0.00,0.0,WeatherDisplay:10.37,2013-10-24 03:41:00,
2013-10-23 22:46:00,56.5,50.1,30.06,SSW,210,0.0,0.0,79,0.00,CLR,,0.00,0.0,WeatherDisplay:10.37,2013-10-24 03:46:00,
2013-10-23 22:51:00,57.0,49.9,30.06,SSW,210,3.9,4.0,77,0.00,CLR,,0.00,0.0,WeatherDisplay:10.37,2013-10-24 03:51:00,
2013-10-23 22:56:00,58.2,49.6,30.06,SSW,210,5.7,6.9,73,0.00,CLR,,0.00,0.0,WeatherDisplay:10.37,2013-10-24 03:56:00,
2013-10-23 23:01:00,59.5,49.3,30.06,SSW,210,4.4,5.8,69,0.00,CLR,,0.00,0.0,WeatherDisplay:10.37,2013-10-24 04:01:00,
2013-10-23 23:02:00,59.6,49.0,30.06,SSW,210,4.9,6.9,68,0.00,CLR,,0.00,0.0,WeatherDisplay:10.37,2013-10-24 04:02:00,
2013-10-23 23:07:00,60.0,49.4,30.06,SSW,210,4.1,5.8,68,0.00,CLR,,0.00,0.0,WeatherDisplay:10.37,2013-10-24 04:07:00,
2013-10-23 23:12:00,57.4,49.9,30.06,SSW,210,2.9,4.0,76,0.00,CLR,,0.00,0.0,WeatherDisplay:10.37,2013-10-24 04:12:00,
2013-10-23 23:17:00,55.4,49.3,30.06,SSW,210,1.9,3.5,80,0.00,CLR,,0.00,0.0,WeatherDisplay:10.37,2013-10-24 04:17:00,
2013-10-23 23:22:00,54.6,49.2,30.06,SSW,210,0.3,1.2,82,0.00,CLR,,0.00,0.0,WeatherDisplay:10.37,2013-10-24 04:22:00,
2013-10-23 23:27:00,54.2,49.1,30.06,SSW,210,0.1,1.2,83,0.00,CLR,,0.00,0.0,WeatherDisplay:10.37,2013-10-24 04:27:00,
2013-10-23 23:32:00,54.1,49.4,30.06,SSW,210,1.3,3.5,84,0.00,CLR,,0.00,0.0,WeatherDisplay:10.37,2013-10-24 04:32:00,
2013-10-23 23:37:00,53.9,49.2,30.06,SSW,210,2.2,3.5,84,0.00,CLR,,0.00,0.0,WeatherDisplay:10.37,2013-10-24 04:37:00,
2013-10-23 23:42:00,53.8,49.1,30.06,SSW,210,3.6,3.6,84,0.00,CLR,,0.00,0.0,WeatherDisplay:10.37,2013-10-24 04:42:00,
2013-10-23 23:47:00,53.7,49.3,30.06,SSW,210,2.3,3.5,85,0.00,CLR,,0.00,0.0,WeatherDisplay:10.37,2013-10-24 04:47:00,
2013-10-23 23:52:00,53.5,49.4,30.06,SSW,210,0.9,1.2,86,0.00,CLR,,0.00,0.0,WeatherDisplay:10.37,2013-10-24 04:52:00,
2013-10-23 23:57:00,53.2,49.1,30.06,SSW,210,0.0,0.0,86,0.00,CLR,,0.00,0.0,WeatherDisplay:10.37,2013-10-24 04:57:00,